Flag for Canada Weather past 2 weeks in Bathurst, New Brunswick, Canada

Now
7 °F

Low level haze.


Feels Like: -14 °F
Forecast: -8 / 11 °F
Wind: 22 mph from West

Location: Bathurst Airport

Current Time: Feb 1, 2015 at 4:10:53 PM

Latest Report: Feb 1, 2015 at 3:00 PM


Visibility: 15 mi

Pressure: 29.67 "Hg

Humidity: 47%

Dew point: -9 °F

Location of BathurstLocation

Historic Weather in Bathurst — Graph

°F

Bathurst temperature yesterday

Maximum temperature yesterday: 25 °F (at 1:00 PM)
Minimum temperature yesterday: 18 °F (at 1:00 AM)
Average temperature yesterday: 20 °F

Past Weeks' High & Low Weather Summary

 TemperatureHumidityPressure
High43 °F (Jan 19, 12:00 PM)100% (Jan 19, 3:00 AM)30.45 "Hg (Jan 19, 3:00 AM)
Low-9 °F (Jan 26, 8:00 PM)36% (Jan 26, 4:00 PM)28.86 "Hg (Jan 25, 4:00 AM)
Average14 °F72%29.84 "Hg
* Reported Jan 17 3:00 PM — Feb 1 3:00 PM, Bathurst, Weather by CustomWeather, © 2014

Note: Actual official high and low records may vary slightly from our data, if they occured in-between our weather recording intervals... More about our weather records

Advertising

Bathurst weather history for previous 24 hours

 ConditionsComfort  
Time TempWeatherWind HumidityBarometerVisibility
3:00 PM
Feb 1
7 °FLow level haze.22 mph47%29.67 "Hg15 mi
2:00 PM7 °FLow level haze.18 mph51%29.64 "Hg15 mi
1:00 PM7 °FSunny.29 mph51%29.62 "Hg15 mi
12:00 PM7 °FLow level haze.14 mph56%29.62 "Hg15 mi
11:00 AM7 °FLow level haze.10 mph56%29.63 "Hg15 mi
10:00 AM5 °FBroken clouds.9 mph55%29.62 "Hg15 mi
9:00 AM5 °FPartly sunny.12 mph60%29.61 "Hg15 mi
8:00 AM5 °FPartly sunny.18 mph66%29.58 "Hg15 mi
7:00 AM7 °FLight snow. Partly cloudy.10 mph66%29.55 "Hg15 mi
6:00 AM9 °FLight snow. Overcast.15 mph66%29.52 "Hg12 mi
5:00 AM9 °FLight snow. Overcast.14 mph72%29.52 "Hg4 mi
4:00 AM10 °FLight snow. Overcast.14 mph72%29.51 "Hg8 mi
3:00 AM12 °FLight snow. Overcast.17 mph73%29.51 "Hg10 mi
2:00 AM14 °FLight snow. Overcast.15 mph67%29.50 "Hg15 mi
1:00 AM14 °FLight snow. Overcast.18 mph73%29.48 "Hg15 mi
12:00 AM16 °FLight snow. Overcast.13 mph67%29.49 "Hg15 mi
11:00 PM
Jan 31
18 °FLight snow. Overcast.12 mph68%29.47 "Hg15 mi
10:54 PM18 °FLight snow. Overcast.16 mph68%29.47 "Hg15 mi
10:00 PM18 °FLight snow. Overcast.15 mph68%29.48 "Hg12 mi
9:00 PM18 °FLight snow. Overcast.15 mph79%29.52 "Hg15 mi
8:00 PM19 °FSnow flurries. Overcast.13 mph79%29.52 "Hg12 mi
7:00 PM21 °FLight snow. Ice fog.8 mph86%29.55 "Hg2 mi
6:46 PM21 °FLight snow. Ice fog.12 mph86%29.53 "Hg1 mi
6:00 PM23 °FSnow. Ice fog.12 mph86%29.51 "Hg1 mi
5:00 PM23 °FHeavy snow. Ice fog.16 mph86%29.54 "Hg0 mi
4:00 PM23 °FHeavy snow. Ice fog.10 mph93%29.57 "Hg0 mi
Weather by CustomWeather, © 2014

See weather overviewHow to use our weather pages